Latest Coastal Weather Observations for Coconut Island

IDQ60701

Issued at 11:55 am EST Saturday 20 September 2014 (issued every 10 minutes, with the page automatically refreshed every 10 minutes)

About coastal observations | Map of coastal stations | Coastal observations for QLD | Marine services | Other Formats
Station Details ID: 027054 Name: COCONUT ISLAND Lat: -10.05 Lon: 143.07 Height: 3.5 m
Data from the previous 72 hours. | See also: Recent months at Coconut Island
Date/Time
EST
Temp

°C
Wind Pressure Rain
since 9am
mm
Weather Cloud Vis
km
Sea
Height
m
Swell
Dir
 
Speed
knots
Gust
knots
hPa Trend Height
m
Period
s
Dir
20/11:30am 30.9 SSE 3 5 1013.8 - 0.0 - - - - - - -
20/11:00am 30.2 SE 3 7 1014.0 - 0.0 - - - - - - -
20/10:30am 30.1 SSE 3 4 1014.3 - 0.0 - - - - - - -
20/10:00am 29.3 SSE 4 7 1014.4 - 0.0 - - - - - - -
20/09:30am 29.4 SSE 4 5 1014.3 - 0.0 - - - - - - -
20/09:00am 27.9 SSE 4 5 1014.4 - 0.0 - - - - - - -
20/08:30am 27.4 SSE 3 5 1014.2 - 0.0 - - - - - - -
20/08:00am 26.5 SSE 3 5 1014.0 - 0.0 - - - - - - -
20/07:30am 25.4 SSE 2 4 1013.7 - 0.0 - - - - - - -
20/07:00am 24.6 SSE 2 4 1013.1 - 0.0 - - - - - - -
20/06:30am 24.2 SSE 2 3 1012.7 - 0.0 - - - - - - -
20/06:00am 24.4 SSE 3 4 1012.4 - 0.0 - - - - - - -
20/05:30am 24.5 SSE 3 6 1012.1 - 0.0 - - - - - - -
20/05:00am 24.7 SSE 3 6 1011.8 - 0.0 - - - - - - -
20/04:30am 24.7 SSE 4 5 1011.7 - 0.0 - - - - - - -
20/04:00am 24.6 SSE 4 6 1011.8 - 0.0 - - - - - - -
20/03:30am 24.7 SSE 4 5 1012.0 - 0.0 - - - - - - -
20/03:00am 24.8 SSE 3 6 1012.1 - 0.0 - - - - - - -
20/02:30am 24.9 SSE 4 6 1012.4 - 0.0 - - - - - - -
20/02:00am 24.8 SSE 4 6 1012.8 - 0.0 - - - - - - -
20/01:30am 25.1 SSE 4 8 1013.2 - 0.0 - - - - - - -
20/01:00am 25.1 SSE 4 9 1013.6 - 0.0 - - - - - - -
20/12:30am 25.0 SSE 5 9 1013.6 - 0.0 - - - - - - -
20/12:00am 25.2 SSE 5 8 1014.1 - 0.0 - - - - - - -
 
Date/Time
EST
Temp

°C
Wind Pressure Rain
since 9am
mm
Weather Cloud Vis
km
Sea
Height
m
Swell
Dir
 
Speed
knots
Gust
knots
hPa Trend Height
m
Period
s
Dir
19/11:30pm 25.3 SSE 5 7 1014.4 - 0.0 - - - - - - -
19/11:00pm 25.2 SSE 5 7 1014.8 - 0.0 - - - - - - -
19/10:30pm 25.3 SSE 4 7 1014.7 - 0.0 - - - - - - -
19/10:00pm 25.2 SSE 5 8 1014.8 - 0.0 - - - - - - -
19/09:30pm 25.3 SSE 5 8 1014.7 - 0.0 - - - - - - -
19/09:00pm 25.3 SSE 5 9 1014.2 - 0.0 - - - - - - -
19/08:30pm 25.5 SSE 5 6 1013.9 - 0.0 - - - - - - -
19/08:00pm 25.6 SSE 5 8 1013.7 - 0.0 - - - - - - -
19/07:30pm 25.8 SSE 6 10 1013.4 - 0.0 - - - - - - -
19/07:00pm 25.9 SSE 5 8 1012.7 - 0.0 - - - - - - -
19/06:30pm 26.2 SSE 5 7 1012.3 - 0.0 - - - - - - -
19/06:00pm 26.6 SSE 5 8 1012.1 - 0.0 - - - - - - -
19/05:30pm 26.8 SSE 4 6 1011.8 - 0.0 - - - - - - -
19/05:00pm 27.1 SSE 5 7 1011.4 - 0.0 - - - - - - -
19/04:30pm 27.4 SSE 4 6 1011.4 - 0.0 - - - - - - -
19/04:00pm 27.9 SSE 4 6 1011.5 - 0.0 - - - - - - -
19/03:30pm 28.5 SSE 3 5 1011.5 - 0.0 - - - - - - -
19/03:00pm 29.1 SSE 3 5 1011.8 - 0.0 - - - - - - -
19/02:30pm 29.9 SSE 3 8 1012.0 - 0.0 - - - - - - -
19/02:00pm 30.3 SE 3 5 1012.4 - 0.0 - - - - - - -
19/01:30pm 30.4 SSE 3 5 1012.9 - 0.0 - - - - - - -
19/01:00pm 30.5 SE 4 7 1013.4 - 0.0 - - - - - - -
19/12:30pm 30.6 SSE 4 8 1013.9 - 0.0 - - - - - - -
19/12:00pm 30.2 SE 4 9 1014.2 - 0.0 - - - - - - -
19/11:30am 30.4 SE 3 9 1014.6 - 0.0 - - - - - - -
19/11:00am 29.8 SE 5 9 1014.8 - 0.0 - - - - - - -
19/10:30am 29.7 SE 4 11 1015.1 - 0.0 - - - - - - -
19/10:00am 28.9 SE 4 7 1015.3 - 0.0 - - - - - - -
19/09:30am 28.7 SE 4 7 1015.1 - 0.0 - - - - - - -
19/09:00am 28.6 SE 4 7 1014.8 - 0.0 - - - - - - -
19/08:30am 27.6 SE 4 7 1014.8 - 0.0 - - - - - - -
19/08:00am 26.4 SE 5 10 1014.6 - 0.0 - - - - - - -
19/07:30am 25.4 SE 3 7 1014.2 - 0.0 - - - - - - -
19/07:00am 24.4 SSE 3 7 1013.7 - 0.0 - - - - - - -
19/06:30am 23.9 SE 4 8 1013.2 - 0.0 - - - - - - -
19/06:00am 23.9 SE 3 7 1012.9 - 0.0 - - - - - - -
19/05:30am 24.1 SE 3 7 1012.8 - 0.0 - - - - - - -
19/05:00am 24.1 SE 3 7 1012.7 - 0.0 - - - - - - -
19/04:30am 24.0 SE 3 7 1012.7 - 0.0 - - - - - - -
19/04:00am 24.2 SSE 3 5 1012.5 - 0.0 - - - - - - -
19/03:30am 24.3 SSE 3 6 1012.5 - 0.0 - - - - - - -
19/03:00am 24.2 SE 3 6 1012.5 - 0.0 - - - - - - -
19/02:30am 24.5 SSE 4 7 1012.7 - 0.0 - - - - - - -
19/02:00am 24.5 SSE 3 6 1013.1 - 0.0 - - - - - - -
19/01:30am 24.7 SSE 4 6 1013.5 - 0.0 - - - - - - -
19/01:00am 24.9 SSE 4 6 1013.7 - 0.0 - - - - - - -
19/12:30am 24.9 SSE 5 7 1014.1 - 0.0 - - - - - - -
19/12:00am 25.0 SSE 5 7 1014.5 - 0.0 - - - - - - -
 
Date/Time
EST
Temp

°C
Wind Pressure Rain
since 9am
mm
Weather Cloud Vis
km
Sea
Height
m
Swell
Dir
 
Speed
knots
Gust
knots
hPa Trend Height
m
Period
s
Dir
18/11:30pm 25.0 SSE 4 5 1014.8 - 0.0 - - - - - - -
18/11:00pm 25.1 SSE 4 7 1015.1 - 0.0 - - - - - - -
18/10:30pm 25.1 SSE 4 6 1015.2 - 0.0 - - - - - - -
18/10:00pm 25.1 SSE 4 6 1015.2 - 0.0 - - - - - - -
18/09:30pm 25.3 SSE 4 6 1015.0 - 0.0 - - - - - - -
18/09:00pm 25.4 SSE 4 7 1014.9 - 0.0 - - - - - - -
18/08:30pm 25.6 SSE 4 8 1014.7 - 0.0 - - - - - - -
18/08:00pm 25.6 SSE 5 7 1014.1 - 0.0 - - - - - - -
18/07:30pm 25.6 SSE 4 6 1013.7 - 0.0 - - - - - - -
18/07:00pm 25.7 SSE 5 7 1013.2 - 0.0 - - - - - - -
18/06:30pm 25.7 SSE 5 7 1012.8 - 0.0 - - - - - - -
18/06:00pm 26.2 SSE 4 7 1012.6 - 0.0 - - - - - - -
18/05:30pm 26.7 SSE 4 6 1012.4 - 0.0 - - - - - - -
18/05:00pm 27.0 SSE 4 6 1012.1 - 0.0 - - - - - - -
18/04:30pm 27.4 SSE 4 5 1012.1 - 0.0 - - - - - - -
18/04:00pm 27.8 SSE 4 6 1012.1 - 0.0 - - - - - - -
18/03:30pm 28.2 SSE 4 6 1012.3 - 0.0 - - - - - - -
18/03:00pm 28.8 SSE 4 6 1012.5 - 0.0 - - - - - - -
18/02:30pm 29.3 SSE 3 5 1012.9 - 0.0 - - - - - - -
18/02:00pm 29.6 SE 3 4 1013.3 - 0.0 - - - - - - -
18/01:30pm 30.5 SE 3 6 1013.5 - 0.0 - - - - - - -
18/01:00pm 30.9 SE 3 5 1013.8 - 0.0 - - - - - - -
18/12:30pm 30.5 SE 3 7 1014.3 - 0.0 - - - - - - -
18/12:00pm 30.3 SE 3 6 1014.8 - 0.0 - - - - - - -
18/11:30am 30.3 SE 3 4 1015.0 - 0.0 - - - - - - -
18/11:00am 30.1 SE 3 6 1015.3 - 0.0 - - - - - - -
18/10:30am 29.7 SSE 3 4 1015.4 - 0.0 - - - - - - -
18/10:00am 29.6 SSE 3 5 1015.4 - 0.0 - - - - - - -
18/09:30am 28.6 SE 3 5 1015.7 - 0.0 - - - - - - -
18/09:00am 28.1 SE 3 4 1015.6 - 0.0 - - - - - - -
18/08:30am 27.1 SE 2 4 1015.4 - 0.0 - - - - - - -
18/08:00am 26.4 SE 3 7 1015.2 - 0.0 - - - - - - -
18/07:30am 24.6 SE 3 6 1014.8 - 0.0 - - - - - - -
18/07:00am 23.4 SE 3 7 1014.3 - 0.0 - - - - - - -
18/06:30am 22.8 SE 4 7 1013.9 - 0.0 - - - - - - -
18/06:00am 22.6 SSE 3 7 1013.5 - 0.0 - - - - - - -
18/05:30am 22.7 SSE 3 7 1013.4 - 0.0 - - - - - - -
18/05:00am 22.6 SE 3 5 1013.1 - 0.0 - - - - - - -
18/04:30am 22.7 SE 3 6 1013.0 - 0.0 - - - - - - -
18/04:00am 23.1 SE 4 10 1012.9 - 0.0 - - - - - - -
18/03:30am 23.1 SE 4 9 1012.9 - 0.0 - - - - - - -
18/03:00am 23.1 ESE 5 9 1012.9 - 0.0 - - - - - - -
18/02:30am 23.2 ESE 6 9 1013.1 - 0.0 - - - - - - -
18/02:00am 23.2 ESE 6 10 1013.4 - 0.0 - - - - - - -
18/01:30am 23.3 ESE 5 9 1013.6 - 0.0 - - - - - - -
18/01:00am 23.7 ESE 6 12 1014.0 - 0.0 - - - - - - -
18/12:30am 24.0 ESE 5 12 1014.3 - 0.0 - - - - - - -
18/12:00am 24.2 ESE 7 13 1014.8 - 0.0 - - - - - - -
 
Date/Time
EST
Temp

°C
Wind Pressure Rain
since 9am
mm
Weather Cloud Vis
km
Sea
Height
m
Swell
Dir
 
Speed
knots
Gust
knots
hPa Trend Height
m
Period
s
Dir
17/11:30pm 24.3 SE 6 11 1015.2 - 0.0 - - - - - - -
17/11:00pm 24.6 SE 4 9 1015.1 - 0.0 - - - - - - -
17/10:30pm 24.6 SSE 5 7 1014.9 - 0.0 - - - - - - -
17/10:00pm 24.8 SSE 5 8 1014.9 - 0.0 - - - - - - -
17/09:30pm 24.9 SE 5 11 1014.7 - 0.0 - - - - - - -
17/09:00pm 25.0 SE 5 10 1014.7 - 0.0 - - - - - - -
17/08:30pm 25.0 SE 5 10 1014.2 - 0.0 - - - - - - -
17/08:00pm 25.3 SE 5 9 1013.8 - 0.0 - - - - - - -
17/07:30pm 25.6 SSE 5 8 1013.3 - 0.0 - - - - - - -
17/07:00pm 25.7 SSE 4 7 1013.0 - 0.0 - - - - - - -
17/06:30pm 26.0 SSE 4 6 1012.4 - 0.0 - - - - - - -
17/06:00pm 26.6 SSE 3 6 1012.2 - 0.0 - - - - - - -
17/05:30pm 27.0 SSE 4 6 1012.0 - 0.0 - - - - - - -
17/05:00pm 27.7 SSE 4 6 1011.6 - 0.0 - - - - - - -
17/04:30pm 27.9 SSE 4 6 1011.6 - 0.0 - - - - - - -
17/04:00pm 28.2 SSE 4 7 1011.7 - 0.0 - - - - - - -
17/03:30pm 28.5 SSE 3 6 1011.9 - 0.0 - - - - - - -
17/03:00pm 28.9 SSE 3 6 1012.2 - 0.0 - - - - - - -
17/02:30pm 29.4 SSE 4 7 1012.3 - 0.0 - - - - - - -
17/02:00pm 30.3 SSE 4 6 1012.7 - 0.0 - - - - - - -
17/01:30pm 30.7 SE 4 7 1013.0 - 0.0 - - - - - - -
17/01:00pm 30.0 SSE 4 7 1013.3 - 0.0 - - - - - - -
17/12:30pm 30.6 SSE 4 7 1013.4 - 0.0 - - - - - - -
17/12:00pm 30.8 SSE 4 6 1014.0 - 0.0 - - - - - - -

Other Formats:

Comma delimited format used in spreadsheet applications
http://www.bom.gov.au/fwo/IDQ60701/IDQ60701.94182.axf

JavaScript Object Notation format (JSON) in row-major order
http://www.bom.gov.au/fwo/IDQ60701/IDQ60701.94182.json